Tracking 27079 objects as of 23-Mar-2023
HD Live streaming from Space Station
objects crossing your sky now

SL-16 DEB

Track SL-16 DEB now!
10-day predictions


NORAD ID: 29105
Int'l Code: 2004-021G
Perigee: 805.8 km
Apogee: 1,105.7 km
Inclination: 70.9 °
Period: 104.0 minutes
Semi major axis: 7326 km
RCS: 0.0109 m2 (small)
Launch date: June 10, 2004
Source: Commonwealth of Independent States (former USSR) (CIS)
Launch site: TYURATAM MISSILE AND SPACE COMPLEX (TTMTR)

Note: This is SATELLITE DEBRIS
Your satellite tracking list
Your tracking list is empty




NASA's NSSDC Master Catalog

Two Line Element Set (TLE):
1 29105U 04021G   23082.57110092  .00005792  00000-0  44355-2 0  9990
2 29105  70.9244 153.2611 0204715 163.4584 197.3336 13.84317959489535
Source of the keplerian elements: AFSPC